Location: Brede
(50.9167°N, 0.6000°E)
Time: 19:25:18
(UTC+00:00)

Cosmos 372 Rocket - Pass Details

Date: 08 August 2020
Orbit: 738 x 768 km, 74.1° (Epoch: 24 September)

Event Time Altitude Azimuth Distance (km) Brightness Sun altitude
Exits shadow 03:27:52 - 193° (SSW) 2,622 6.3 -9.5°
Reaches altitude 10° 03:28:45 10° 192° (SSW) 2,283 6.0 -9.4°
Maximum altitude 03:33:54 69° 110° (ESE) 816 4.3 -8.8°
Drops below altitude 10° 03:39:07 10° 28° (NNE) 2,315 7.7 -8.2°
Sets 03:41:31 0° 26° (NNE) 3,248 8.6 -7.9°
